�N����,����,�g�[���i���ԁj���x,�g�[�����x,��g�[���i���ցj���x,����
 2002/11/01, 0:00,15.3,67,13.4,16.5
 2002/11/01, 0:15,15.6,69,13.4,16.8
 2002/11/01, 0:30,16,73,13.4,16.9
 2002/11/01, 0:45,15.9,73,13.4,16.8
 2002/11/01, 1:00,16,69,13.5,17.1
 2002/11/01, 1:15,15.6,67,13.5,17.4
 2002/11/01, 1:30,15.5,66,13.5,17.3
 2002/11/01, 1:45,15.4,66,13.6,17.2
 2002/11/01, 2:00,15.2,66,13.5,17.2
 2002/11/01, 2:15,15.1,66,13.6,17.1
 2002/11/01, 2:30,15.1,66,13.6,17.1
 2002/11/01, 2:45,15.1,65.5,13.6,17
 2002/11/01, 3:00,14.9,66,13.5,17
 2002/11/01, 3:15,14.9,66,13.6,17
 2002/11/01, 3:30,14.8,66,13.6,16.9
 2002/11/01, 3:45,14.9,66,13.6,16.9
 2002/11/01, 4:00,14.9,66,13.6,16.8
 2002/11/01, 4:15,14.9,66,13.6,16.8
 2002/11/01, 4:30,14.8,66,13.6,15.5
 2002/11/01, 4:45,14.8,67,13.6,16.6
 2002/11/01, 5:00,14.8,67,13.5,16.6
 2002/11/01, 5:15,14.8,67,13.5,16.6
 2002/11/01, 5:30,14.7,67,13.6,16.5
 2002/11/01, 5:45,14.8,67,13.6,16.5
 2002/11/01, 6:00,14.7,67,13.6,15.4
 2002/11/01, 6:15,15.1,69,13.5,16.5
 2002/11/01, 6:30,15.1,69,13.6,16.5
 2002/11/01, 6:45,15.4,70.5,13.6,16.5
 2002/11/01, 7:00,15.7,72,13.7,16.7
 2002/11/01, 7:15,15.6,71.5,13.7,17
 2002/11/01, 7:30,15.6,72,13.7,17
 2002/11/01, 7:45,15.6,73,13.9,16.8
 2002/11/01, 8:00,15.5,73,13.9,16.9
 2002/11/01, 8:15,15.6,74,13.9,16.9
 2002/11/01, 8:30,15.8,75,13.9,16.9
 2002/11/01, 8:45,15.8,74,13.9,16.3
 2002/11/01, 9:00,15.7,74,14,16.5
 2002/11/01, 9:15,15.9,73,13.9,17.1
 2002/11/01, 9:30,15.9,73,14,17.1
 2002/11/01, 9:45,16,74,13.9,17.1
 2002/11/01,10:00,16,73,14,16.2
 2002/11/01,10:15,16,73.5,14.1,16.8
 2002/11/01,10:30,16.2,73,14.1,16.8
 2002/11/01,10:45,16.2,73,14.1,16.8
 2002/11/01,11:00,16.4,73,14.2,16.7
 2002/11/01,11:15,16.4,72,14.3,17.1
 2002/11/01,11:30,16.5,72,14.3,17.4
 2002/11/01,11:45,16.5,72,14.4,17.2
 2002/11/01,12:00,16.5,72,14.4,17
 2002/11/01,12:15,16.6,69,14.4,17
 2002/11/01,12:30,16.6,71,14.5,17.1
 2002/11/01,12:45,16.7,71,14.6,16.9
 2002/11/01,13:00,16.7,71,14.6,16.9
 2002/11/01,13:15,16.8,71,14.6,16.9
 2002/11/01,13:30,16.8,71,14.6,16.8
 2002/11/01,13:45,16.9,69,14.8,16.6
 2002/11/01,14:00,16.9,68,14.9,16.6
 2002/11/01,14:15,17,69,14.9,17.1
 2002/11/01,14:30,17.3,68,15,17.1
 2002/11/01,14:45,17.4,68,14.9,17.1
 2002/11/01,15:00,17.3,69,15,16.8
 2002/11/01,15:15,17.4,69,14.9,17
 2002/11/01,15:30,17.3,69,15,17
 2002/11/01,15:45,17.4,68.5,15.1,17
 2002/11/01,16:00,17.4,68,15.1,17.2
 2002/11/01,16:15,17.4,68,15,17.3
 2002/11/01,16:30,17.4,68,15.1,17.3
 2002/11/01,16:45,17.3,68,15.1,17.3
 2002/11/01,17:00,17.4,68,15.1,16.9
 2002/11/01,17:15,17.5,68,15,17.1
 2002/11/01,17:30,17.5,68,14.9,17.1
 2002/11/01,17:45,17.4,67,15.1,16.8
 2002/11/01,18:00,17.5,68,15,17.1
 2002/11/01,18:15,17.5,67.5,14.9,17.1
 2002/11/01,18:30,17.3,66,15,16.9
 2002/11/01,18:45,17.5,69.5,14.9,17
 2002/11/01,19:00,17.6,70,14.9,17.1
 2002/11/01,19:15,17.6,70,14.9,17
 2002/11/01,19:30,17.8,71,14.8,17
 2002/11/01,19:45,17.8,71.5,14.8,17
 2002/11/01,20:00,17.8,71,14.8,17
 2002/11/01,20:15,17.7,69.5,14.8,16.5
 2002/11/01,20:30,17.8,69,14.8,16.8
 2002/11/01,20:45,17.7,68,14.8,16.8
 2002/11/01,21:00,17.8,67,14.7,16
 2002/11/01,21:15,17.6,67,14.8,17.1
 2002/11/01,21:30,17.5,67,14.7,17.2
 2002/11/01,21:45,17.5,67,14.7,17.2
 2002/11/01,22:00,17.4,67,14.7,17.2
 2002/11/01,22:15,17.2,66,14.6,17.1
 2002/11/01,22:30,17.1,65,14.6,17.1
 2002/11/01,22:45,17,65,14.6,17
 2002/11/01,23:00,17,64,14.5,17
 2002/11/01,23:15,16.9,63,14.4,17
 2002/11/01,23:30,16.8,62,14.4,17
 2002/11/01,23:45,16.6,61.5,14.4,16.9
 2002/11/02, 0:00,16.5,61,14.2,16.9
 2002/11/02, 0:15,16.4,60,14.1,16.9
 2002/11/02, 0:30,16.3,59,14.2,16.8
 2002/11/02, 0:45,16.1,57.5,14.1,16.8
 2002/11/02, 1:00,16,57,13.9,16.8
 2002/11/02, 1:15,16,57.5,13.9,16.8
 2002/11/02, 1:30,15.9,59,13.8,16.7
 2002/11/02, 1:45,15.9,60,13.8,16.6
 2002/11/02, 2:00,15.9,60,13.7,16.6
 2002/11/02, 2:15,15.9,60,13.6,16.6
 2002/11/02, 2:30,15.8,61,13.5,16.3
 2002/11/02, 2:45,15.6,61,13.5,16.4
 2002/11/02, 3:00,15.5,62,13.4,16.3
 2002/11/02, 3:15,15.4,61.5,13.4,16.2
 2002/11/02, 3:30,15.2,61,13.3,16.2
 2002/11/02, 3:45,15.1,62,13.3,16.2
 2002/11/02, 4:00,15,62,13.2,16.1
 2002/11/02, 4:15,14.9,62,13.2,16.1
 2002/11/02, 4:30,14.8,62,13.1,16
 2002/11/02, 4:45,14.8,62,13.1,16
 2002/11/02, 5:00,14.6,61,13,16
 2002/11/02, 5:15,14.5,61,12.9,15.9
 2002/11/02, 5:30,14.4,61,13,15.9
 2002/11/02, 5:45,14.2,61,12.9,15.9
 2002/11/02, 6:00,14.2,62,12.8,15.8
 2002/11/02, 6:15,14.1,62,12.8,15.8
 2002/11/02, 6:30,14,61,12.7,15.7
 2002/11/02, 6:45,13.9,62,12.8,15.7
 2002/11/02, 7:00,13.9,62,12.7,15.7
 2002/11/02, 7:15,13.9,62,12.7,15.6
 2002/11/02, 7:30,13.8,62,12.6,15.6
 2002/11/02, 7:45,13.8,62,12.8,15.3
 2002/11/02, 8:00,13.8,62,12.7,16.4
 2002/11/02, 8:15,13.7,62.5,12.7,16.3
 2002/11/02, 8:30,13.8,63,12.8,16.3
 2002/11/02, 8:45,14.3,61,13.1,16.2
 2002/11/02, 9:00,14.4,60,13.4,16.2
 2002/11/02, 9:15,14.2,59.5,13.4,16.1
 2002/11/02, 9:30,14.1,60,13.3,16.1
 2002/11/02, 9:45,14.2,62,13.2,16
 2002/11/02,10:00,14.2,63,13.2,16
 2002/11/02,10:15,14.4,63,13.1,15.9
 2002/11/02,10:30,14.3,63,13.2,16.4
 2002/11/02,10:45,14.4,64,13.4,16.5
 2002/11/02,11:00,14.5,65,13.3,16.4
 2002/11/02,11:15,14.5,64,13.3,16.4
 2002/11/02,11:30,14.6,64,13.4,16.4
 2002/11/02,11:45,14.6,63,13.5,16.4
 2002/11/02,12:00,14.6,62,13.5,16.4
 2002/11/02,12:15,14.6,61.5,13.4,16.4
 2002/11/02,12:30,15,61,13.6,16.3
 2002/11/02,12:45,15.5,59.5,13.6,16.3
 2002/11/02,13:00,15.8,58,13.6,16.2
 2002/11/02,13:15,16.2,57,13.7,16.2
 2002/11/02,13:30,16.5,57,13.7,16.2
 2002/11/02,13:45,16.9,56,13.9,16.4
 2002/11/02,14:00,17.4,56,13.9,16.5
 2002/11/02,14:15,17.7,56.5,13.9,16.5
 2002/11/02,14:30,17.9,55,14.1,16.4
 2002/11/02,14:45,17.5,57.5,14.1,16.4
 2002/11/02,15:00,17,60,14.1,16.4
 2002/11/02,15:15,16.9,60,14.1,16.1
 2002/11/02,15:30,16.8,60,14,16.1
 2002/11/02,15:45,16.9,60,14,16.1
 2002/11/02,16:00,16.9,60,14.1,16
 2002/11/02,16:15,17,59.5,13.9,16.2
 2002/11/02,16:30,17,60,14,16.2
 2002/11/02,16:45,16.9,62,13.9,16.3
 2002/11/02,17:00,16.8,62,13.9,16.3
 2002/11/02,17:15,16.8,62,13.8,16.3
 2002/11/02,17:30,16.7,62,13.8,16.3
 2002/11/02,17:45,16.6,61.5,13.8,16.2
 2002/11/02,18:00,16.6,61,13.7,16.2
 2002/11/02,18:15,16.5,61,13.7,16.2
 2002/11/02,18:30,16.5,61,13.5,16.2
 2002/11/02,18:45,16.4,59.5,13.6,15.7
 2002/11/02,19:00,16.2,56,13.4,16.5
 2002/11/02,19:15,16.1,55,13.3,16.4
 2002/11/02,19:30,16.1,55,13.2,15.9
 2002/11/02,19:45,16,55,13.1,16
 2002/11/02,20:00,16.4,65,13.2,16
 2002/11/02,20:15,16.5,64.5,13.2,15.9
 2002/11/02,20:30,16.5,64,13.1,15.9
 2002/11/02,20:45,16.3,63,13.1,15.9
 2002/11/02,21:00,16.2,62,13,15.7
 2002/11/02,21:15,16.4,64,13,16.4
 2002/11/02,21:30,16.2,64,13,16.3
 2002/11/02,21:45,16.1,64,12.9,16.2
 2002/11/02,22:00,16,63,12.8,16.2
 2002/11/02,22:15,15.9,63,12.8,16.5
 2002/11/02,22:30,15.8,62,12.7,16.4
 2002/11/02,22:45,15.7,62,12.6,16.4
 2002/11/02,23:00,15.6,62,12.5,16.3
 2002/11/02,23:15,15.4,60.5,12.5,16.2
 2002/11/02,23:30,15.3,60,12.4,16.2
 2002/11/02,23:45,16.5,58.5,12.4,16.2
 2002/11/03, 0:00,20.2,48,12.3,15.7
 2002/11/03, 0:15,21.3,44,12.2,15.7
 2002/11/03, 0:30,21.9,40,12.2,15.7
 2002/11/03, 0:45,22.1,38.5,12.1,15.6
 2002/11/03, 1:00,22.2,37,12,15.6
 2002/11/03, 1:15,19.4,45,11.9,16
 2002/11/03, 1:30,17.5,50,11.9,16.1
 2002/11/03, 1:45,16.7,51.5,11.8,16
 2002/11/03, 2:00,16.1,53,11.7,15.9
 2002/11/03, 2:15,15.8,54.5,11.7,15.9
 2002/11/03, 2:30,15.4,55,11.6,15.9
 2002/11/03, 2:45,15.2,56,11.5,15.8
 2002/11/03, 3:00,15,57,11.4,15.7
 2002/11/03, 3:15,14.7,57,11.4,15.7
 2002/11/03, 3:30,14.4,56,11.4,15.7
 2002/11/03, 3:45,14.2,56,11.3,15.6
 2002/11/03, 4:00,14,56,11.3,15.6
 2002/11/03, 4:15,13.9,57,11.3,15.5
 2002/11/03, 4:30,13.8,57,11.2,15.5
 2002/11/03, 4:45,13.6,58,11.1,15.4
 2002/11/03, 5:00,13.5,58,11,15.4
 2002/11/03, 5:15,13.4,58,10.9,15.3
 2002/11/03, 5:30,13.3,59,10.8,15.3
 2002/11/03, 5:45,13.2,59,10.6,15.2
 2002/11/03, 6:00,13.1,59,10.6,15.1
 2002/11/03, 6:15,13,59,10.7,15.1
 2002/11/03, 6:30,12.9,59,10.6,15
 2002/11/03, 6:45,12.9,59,10.7,16
 2002/11/03, 7:00,13.6,69,10.9,14.9
 2002/11/03, 7:15,13.4,65.5,10.9,15.7
 2002/11/03, 7:30,13.5,63,11,15.6
 2002/11/03, 7:45,13.8,60,11.2,15.8
 2002/11/03, 8:00,14.2,57,11.3,16
 2002/11/03, 8:15,14.5,55.5,11.8,16
 2002/11/03, 8:30,14.7,55,12.4,15.9
 2002/11/03, 8:45,14.8,54.5,12.8,15.9
 2002/11/03, 9:00,14.8,55,12.9,15.8
 2002/11/03, 9:15,14.9,55,12.9,15.8
 2002/11/03, 9:30,14.8,55,12.8,15.7
 2002/11/03, 9:45,14.6,56,12.7,15.6
 2002/11/03,10:00,14.5,56,12.7,15.6
 2002/11/03,10:15,14.4,56,12.8,15.5
 2002/11/03,10:30,14.3,54,12.9,15.4
 2002/11/03,10:45,14.3,55,12.9,15.7
 2002/11/03,11:00,14.5,54,13,15.7
 2002/11/03,11:15,14.6,54.5,13,15.9
 2002/11/03,11:30,14.8,54,13.1,16
 2002/11/03,11:45,14.9,54,13.1,15.9
 2002/11/03,12:00,14.9,53,13.2,15.5
 2002/11/03,12:15,15.1,52.5,13.2,15.3
 2002/11/03,12:30,15,53,13.2,15.7
 2002/11/03,12:45,15.1,53.5,13.2,15.6
 2002/11/03,13:00,15.2,54,13.2,15.6
 2002/11/03,13:15,15.1,54,13.2,15.6
 2002/11/03,13:30,15.1,54,13.2,15.5
 2002/11/03,13:45,15.1,55,13.2,15.5
 2002/11/03,14:00,15.3,55,13.3,15.5
 2002/11/03,14:15,15.9,54,13.4,15.9
 2002/11/03,14:30,16,54,13.4,16.2
 2002/11/03,14:45,16.1,53.5,13.6,16.1
 2002/11/03,15:00,16.5,52,13.7,16.2
 2002/11/03,15:15,16.6,52,14,16.2
 2002/11/03,15:30,16.5,52,13.8,16.2
 2002/11/03,15:45,16.1,52,13.6,16.1
 2002/11/03,16:00,15.9,52,13.6,16.1
 2002/11/03,16:15,15.6,54,13.8,16
 2002/11/03,16:30,15.4,54,13.7,16
 2002/11/03,16:45,15.2,54,13.5,16
 2002/11/03,17:00,15.2,54,13.4,16
 2002/11/03,17:15,15.1,54.5,13.4,15.4
 2002/11/03,17:30,15.1,55,13.3,15.2
 2002/11/03,17:45,15.1,56.5,13.2,15.6
 2002/11/03,18:00,16.1,80,13.1,15.7
 2002/11/03,18:15,16,69.5,13.1,15.7
 2002/11/03,18:30,15.2,59,13,15.7
 2002/11/03,18:45,14.9,56.5,12.9,15.7
 2002/11/03,19:00,15.2,58,12.9,14.9
 2002/11/03,19:15,15.4,58.5,12.9,15.4
 2002/11/03,19:30,15.4,60,12.8,15.4
 2002/11/03,19:45,15.4,60,12.8,15.4
 2002/11/03,20:00,15.5,60,12.7,15.3
 2002/11/03,20:15,15.4,60,12.6,15.3
 2002/11/03,20:30,15.4,60,12.6,15.3
 2002/11/03,20:45,15.4,60,12.6,15.2
 2002/11/03,21:00,15.3,60,12.6,15.2
 2002/11/03,21:15,15.3,59.5,12.5,15.2
 2002/11/03,21:30,15.8,55,12.5,15.3
 2002/11/03,21:45,15.2,54.5,12.4,15.2
 2002/11/03,22:00,14.9,55,12.4,15.5
 2002/11/03,22:15,14.9,57.5,12.3,15.7
 2002/11/03,22:30,14.9,58,12.3,15.6
 2002/11/03,22:45,14.9,58,12.2,15.6
 2002/11/03,23:00,14.9,59,12.1,15.5
 2002/11/03,23:15,17.8,55,12.1,15.5
 2002/11/03,23:30,20.7,46,12,15.4
 2002/11/03,23:45,21.4,43.5,12,15.4
 2002/11/04, 0:00,22.1,43,11.9,15.4
 2002/11/04, 0:15,22.4,43.5,11.9,15.3
 2002/11/04, 0:30,21.6,42,11.9,15
 2002/11/04, 0:45,18.2,50.5,11.8,16
 2002/11/04, 1:00,17.2,53,11.6,16
 2002/11/04, 1:15,16.4,54.5,11.6,15.9
 2002/11/04, 1:30,15.9,55,11.5,15.9
 2002/11/04, 1:45,15.4,56,11.6,15.8
 2002/11/04, 2:00,15.1,56,11.4,15.7
 2002/11/04, 2:15,14.9,57,11.4,15.7
 2002/11/04, 2:30,14.7,57,11.3,15.6
 2002/11/04, 2:45,14.3,56.5,11.4,15.4
 2002/11/04, 3:00,14.2,57,11.3,15.2
 2002/11/04, 3:15,14.1,57.5,11.3,15.2
 2002/11/04, 3:30,13.9,58,11.2,15.1
 2002/11/04, 3:45,13.8,58,11.2,15.1
 2002/11/04, 4:00,13.6,58,11.2,15.1
 2002/11/04, 4:15,13.4,57.5,11.1,15
 2002/11/04, 4:30,13.3,57,11,15
 2002/11/04, 4:45,13.1,57,11,14.9
 2002/11/04, 5:00,12.9,56,11,14.9
 2002/11/04, 5:15,12.8,56,10.9,14.9
 2002/11/04, 5:30,12.7,56,10.8,14.8
 2002/11/04, 5:45,12.6,55,10.8,14.8
 2002/11/04, 6:00,12.4,55,10.7,14.8
 2002/11/04, 6:15,12.4,55,10.6,14.7
 2002/11/04, 6:30,12.3,55,10.6,14.7
 2002/11/04, 6:45,12.1,55,10.6,14.6
 2002/11/04, 7:00,12,55,10.6,14.6
 2002/11/04, 7:15,11.9,55,10.6,15
 2002/11/04, 7:30,12.2,55,10.7,15.4
 2002/11/04, 7:45,12.9,54.5,10.8,15
 2002/11/04, 8:00,13.4,53,11,14.8
 2002/11/04, 8:15,13.7,53,11.4,14.8
 2002/11/04, 8:30,14.3,58,11.9,14.6
 2002/11/04, 8:45,14.5,56.5,12.3,14.6
 2002/11/04, 9:00,14.6,55,12.5,14.6
 2002/11/04, 9:15,14.6,53.5,12.4,15.1
 2002/11/04, 9:30,14.4,53,12.2,15.3
 2002/11/04, 9:45,14.4,56,12.1,15.2
 2002/11/04,10:00,14.5,59,12.2,15.2
 2002/11/04,10:15,14.2,58.5,12.2,15.1
 2002/11/04,10:30,14,57,12.6,15.2
 2002/11/04,10:45,13.8,51.5,12.4,15.7
 2002/11/04,11:00,13.9,50,12.4,15.7
 2002/11/04,11:15,14,51,12.4,15.6
 2002/11/04,11:30,14.2,51,12.4,15.6
 2002/11/04,11:45,14.1,48.5,12.3,15.5
 2002/11/04,12:00,14.8,47,12.3,14.7
 2002/11/04,12:15,19.5,33.5,12.4,14.9
 2002/11/04,12:30,21.1,32,12.6,14.9
 2002/11/04,12:45,21.7,32.5,12.5,15.6
 2002/11/04,13:00,21.4,32,12.6,15.6
 2002/11/04,13:15,22.5,37,12.6,15.4
 2002/11/04,13:30,22.4,36,12.6,15.6
 2002/11/04,13:45,22.6,35.5,12.6,15.6
 2002/11/04,14:00,23.3,34,12.6,15.5
 2002/11/04,14:15,23.5,32,12.6,15.4
 2002/11/04,14:30,23.5,32,12.6,15.4
 2002/11/04,14:45,24.2,30.5,12.6,15.4
 2002/11/04,15:00,22.6,35,12.6,15.3
 2002/11/04,15:15,23,34.5,12.6,15.1
 2002/11/04,15:30,23.1,33,12.7,15.1
 2002/11/04,15:45,23,33,12.6,15.4
 2002/11/04,16:00,22.9,32,12.5,15.8
 2002/11/04,16:15,23,32,12.4,15.5
 2002/11/04,16:30,22.7,32,12.4,15.6
 2002/11/04,16:45,23.3,30.5,12.3,15.5
 2002/11/04,17:00,24.1,28,12.2,15.5
 2002/11/04,17:15,23.8,29,12.1,15
 2002/11/04,17:30,22.5,35,12.1,15.1
 2002/11/04,17:45,22.5,34,12.1,15.2
 2002/11/04,18:00,23.6,29,12,15.2
 2002/11/04,18:15,23.6,28,11.9,15.1
 2002/11/04,18:30,23.4,28,11.9,15
 2002/11/04,18:45,23.2,29,11.8,15.1
 2002/11/04,19:00,24.2,35,11.8,15.2
 2002/11/04,19:15,24.6,38,11.8,15.1
 2002/11/04,19:30,24.7,37,11.7,15.1
 2002/11/04,19:45,24.8,38.5,11.8,15.1
 2002/11/04,20:00,24.8,39,11.8,15.2
 2002/11/04,20:15,25,37,11.8,15.1
 2002/11/04,20:30,25.1,36,11.7,15.1
 2002/11/04,20:45,25.2,35,11.7,15
 2002/11/04,21:00,25.3,35,11.7,15
 2002/11/04,21:15,25.2,34.5,11.7,14.8
 2002/11/04,21:30,25.1,33,11.7,14.8
 2002/11/04,21:45,25.1,33,11.6,14.7
 2002/11/04,22:00,25.2,33,11.6,14.7
 2002/11/04,22:15,25,32,11.6,14.7
 2002/11/04,22:30,24.9,33,11.6,14.6
 2002/11/04,22:45,24.9,32.5,11.5,14.9
 2002/11/04,23:00,24.8,32,11.4,14.9
 2002/11/04,23:15,24.9,32.5,11.4,14.9
 2002/11/04,23:30,24.7,33,11.4,14.8
 2002/11/04,23:45,24.7,33,11.3,14.8
 2002/11/05, 0:00,24.6,33,11.2,14.8
 2002/11/05, 0:15,24.4,32.5,11.2,14.7
 2002/11/05, 0:30,20.9,38,11.2,15.1
 2002/11/05, 0:45,19.2,42,11.1,15
 2002/11/05, 1:00,18.3,44,11.1,14.9
 2002/11/05, 1:15,17.6,45,11,14.9
 2002/11/05, 1:30,17,46,10.9,14.8
 2002/11/05, 1:45,16.4,44.5,11.1,14.8
 2002/11/05, 2:00,16.1,46,11,15.1
 2002/11/05, 2:15,15.9,47,10.9,15.1
 2002/11/05, 2:30,15.7,48,10.7,15.1
 2002/11/05, 2:45,15.4,48,10.7,15
 2002/11/05, 3:00,15.2,48,10.6,15
 2002/11/05, 3:15,14.9,49,10.6,14.9
 2002/11/05, 3:30,14.7,49,10.5,14.9
 2002/11/05, 3:45,14.6,49,10.4,14.8
 2002/11/05, 4:00,14.4,50,10.3,14.8
 2002/11/05, 4:15,14.2,50,10.4,14.8
 2002/11/05, 4:30,14,50,10.3,14.7
 2002/11/05, 4:45,13.9,50,10.2,14.6
 2002/11/05, 5:00,13.8,51,10.2,14.6
 2002/11/05, 5:15,13.6,51,10.1,14.6
 2002/11/05, 5:30,13.5,51,10.1,14.5
 2002/11/05, 5:45,13.4,51.5,10.1,14.5
 2002/11/05, 6:00,13.3,52,9.9,13.7
 2002/11/05, 6:15,13.4,51.5,9.9,14.8
 2002/11/05, 6:30,13.2,50,10,14.8
 2002/11/05, 6:45,13.4,53,9.9,14.8
 2002/11/05, 7:00,13.7,56,9.9,14.7
 2002/11/05, 7:15,13.6,58,9.9,14.8
 2002/11/05, 7:30,13.3,57,10.1,15
 2002/11/05, 7:45,13.1,55,10.1,14.9
 2002/11/05, 8:00,13.1,55,10,14.8
 2002/11/05, 8:15,13.2,55.5,10.1,14.4
 2002/11/05, 8:30,13.1,54,10.1,14.5
 2002/11/05, 8:45,13.1,54,10.4,14.8
 2002/11/05, 9:00,13.7,53,11,14.8
 2002/11/05, 9:15,19.2,37,10.9,14.8
 2002/11/05, 9:30,20.9,36,10.8,14.7
 2002/11/05, 9:45,21.5,34.5,11.1,14.6
 2002/11/05,10:00,22,33,11.3,14.6
 2002/11/05,10:15,22.4,32,11.4,14.5
 2002/11/05,10:30,22.5,31,11.5,14.5
 2002/11/05,10:45,22.6,31,11.8,14.4
 2002/11/05,11:00,22.9,30,11.8,14.4
 2002/11/05,11:15,23,29.5,11.9,14.4
 2002/11/05,11:30,23.1,29,12,14.3
 2002/11/05,11:45,23.2,29,12.1,14.6
 2002/11/05,12:00,23.4,29,12.1,14.6
 2002/11/05,12:15,23.5,30,12.1,14.6
 2002/11/05,12:30,23.8,30,12.3,14.5
 2002/11/05,12:45,21.2,35.5,12.6,13.9
 2002/11/05,13:00,19.4,39,12.5,14.3
 2002/11/05,13:15,18.9,40.5,12.6,14.3
 2002/11/05,13:30,18.4,41,13,13.9
 2002/11/05,13:45,18,42,12.9,14.6
 2002/11/05,14:00,18.6,43,12.9,15
 2002/11/05,14:15,18.9,43.5,13.1,15
 2002/11/05,14:30,18.8,44,13.5,15
 2002/11/05,14:45,18.4,45,13.2,15
 2002/11/05,15:00,18.2,46,13.7,14.9
 2002/11/05,15:15,18.1,46,14.5,14.9
 2002/11/05,15:30,18.1,46,14.7,14.9
 2002/11/05,15:45,18.1,47.5,13.9,15.2
 2002/11/05,16:00,18.1,48,13.3,15.2
 2002/11/05,16:15,17.9,49.5,13.4,15.1
 2002/11/05,16:30,17.5,48,13.6,14.9
 2002/11/05,16:45,17.4,49,13.2,14.9
 2002/11/05,17:00,17.3,49,13,14.8
 2002/11/05,17:15,17,50,12.9,14.9
 2002/11/05,17:30,16.9,50,12.9,14.9
 2002/11/05,17:45,16.8,50,12.8,14.4
 2002/11/05,18:00,16.7,50,12.6,14.8
 2002/11/05,18:15,16.6,50.5,12.6,14.8
 2002/11/05,18:30,16.7,50,12.4,14.8
 2002/11/05,18:45,16.6,53,12.4,14.7
 2002/11/05,19:00,16.3,50,12.3,14.6
 2002/11/05,19:15,16.2,52.5,12.2,14.6
 2002/11/05,19:30,16.3,54,12.2,14.6
 2002/11/05,19:45,16.4,57.5,12.1,14.6
 2002/11/05,20:00,16.4,61,12,14.9
 2002/11/05,20:15,16.4,61,11.9,14.8
 2002/11/05,20:30,16.3,59,12,14.8
 2002/11/05,20:45,16.2,59,11.9,14.7
 2002/11/05,21:00,16.2,58,11.9,14.7
 2002/11/05,21:15,16,57.5,11.8,14.4
 2002/11/05,21:30,15.9,57,11.8,14.4
 2002/11/05,21:45,15.8,56,11.8,14.4
 2002/11/05,22:00,15.7,55,11.8,14.5
 2002/11/05,22:15,15.6,55,11.6,14.5
 2002/11/05,22:30,15.5,55,11.5,14.5
 2002/11/05,22:45,15.4,55.5,11.5,14.6
 2002/11/05,23:00,15.4,55,11.4,14.6
 2002/11/05,23:15,15.2,55.5,11.3,14.6
 2002/11/05,23:30,15.1,56,11.3,14.6
 2002/11/05,23:45,15.1,56,11.2,14.5
 2002/11/06, 0:00,15,56,11.2,14.5
 2002/11/06, 0:15,14.9,56,11.1,14.4
 2002/11/06, 0:30,15.9,61,11.1,14.4
 2002/11/06, 0:45,16,64,11.1,14.4
 2002/11/06, 1:00,15.7,64,11,14.3
 2002/11/06, 1:15,15.6,61,10.9,14.3
 2002/11/06, 1:30,15.3,60,10.8,14.3
 2002/11/06, 1:45,15.1,59.5,10.8,15.1
 2002/11/06, 2:00,14.7,59,10.7,15.1
 2002/11/06, 2:15,14.4,59,10.6,15.1
 2002/11/06, 2:30,14.2,59,10.5,15
 2002/11/06, 2:45,13.9,59,10.4,14.9
 2002/11/06, 3:00,13.8,58,10.5,13.7
 2002/11/06, 3:15,13.6,58,10.3,14.4
 2002/11/06, 3:30,13.5,58,10.2,14.4
 2002/11/06, 3:45,13.4,58,10.2,14.4
 2002/11/06, 4:00,13.2,59,10.2,14.3
 2002/11/06, 4:15,13.1,59,10.1,14.3
 2002/11/06, 4:30,12.9,59,10,14.3
 2002/11/06, 4:45,12.8,59,10,14.2
 2002/11/06, 5:00,12.7,59,9.9,14.2
 2002/11/06, 5:15,12.6,59,9.9,14.1
 2002/11/06, 5:30,12.6,59,9.9,14.1
 2002/11/06, 5:45,12.4,59,9.8,14.1
 2002/11/06, 6:00,12.2,59,9.8,14
 2002/11/06, 6:15,12.1,59,9.8,14
 2002/11/06, 6:30,12.1,59,9.7,14
 2002/11/06, 6:45,12,59,9.6,13.9
 2002/11/06, 7:00,11.9,59,9.7,13.9
 2002/11/06, 7:15,12.1,64,9.8,14.1
 2002/11/06, 7:30,12.4,69,9.7,14.4
 2002/11/06, 7:45,12.4,67,9.8,14.1
 2002/11/06, 8:00,12.6,65,10.1,14.4
 2002/11/06, 8:15,13.3,61,10.9,14.5
 2002/11/06, 8:30,13.7,58,11.7,14.5
 2002/11/06, 8:45,13.6,58.5,12.1,14.6
 2002/11/06, 9:00,13.3,59,11.6,14.7
 2002/11/06, 9:15,13.1,60,11.3,14.6
 2002/11/06, 9:30,12.9,60,11.2,14.5
 2002/11/06, 9:45,12.9,64.5,11,14.5
 2002/11/06,10:00,12.9,63,11.1,14.4
 2002/11/06,10:15,13,64,11.1,14.4
 2002/11/06,10:30,13,63,11,14.4
 2002/11/06,10:45,13.1,63,11.1,14.3
 2002/11/06,11:00,13.2,63,11.3,14.3
 2002/11/06,11:15,13.3,63,11.5,14.2
 2002/11/06,11:30,13.5,62,11.6,14.2
 2002/11/06,11:45,13.4,62,11.6,14.2
 2002/11/06,12:00,13.4,61,11.7,14.6
 2002/11/06,12:15,13.4,61,11.6,14.6
 2002/11/06,12:30,13.4,61,11.4,14.5
 2002/11/06,12:45,13.6,61,11.5,14.5
 2002/11/06,13:00,13.8,61,11.6,14.5
 2002/11/06,13:15,13.9,61,11.7,14.5
 2002/11/06,13:30,13.9,61,11.7,14.6
 2002/11/06,13:45,14.1,60.5,12.1,14.5
 2002/11/06,14:00,14.2,60,12,14.5
 2002/11/06,14:15,14.1,60,12,14.5
 2002/11/06,14:30,14.1,60,12,14.5
 2002/11/06,14:45,14,60.5,12.1,14.5
 2002/11/06,15:00,14.5,60,12,14.4
 2002/11/06,15:15,14.9,58.5,12.1,14.2
 2002/11/06,15:30,15.5,56,12.2,14.6
 2002/11/06,15:45,15.7,55.5,12.2,14.6
 2002/11/06,16:00,15.4,56,12.1,14.5
 2002/11/06,16:15,15.1,57,12.1,14.8
 2002/11/06,16:30,14.7,57,12.5,15
 2002/11/06,16:45,14.6,57,12.1,15.5
 2002/11/06,17:00,14.7,58,12,15.5
 2002/11/06,17:15,14.6,58.5,11.9,14.9
 2002/11/06,17:30,14.6,59,11.9,14.9
 2002/11/06,17:45,14.6,59.5,11.9,14.9
 2002/11/06,18:00,14.7,60,11.9,14.9
 2002/11/06,18:15,15,66.5,11.8,14.9
 2002/11/06,18:30,16.2,87,11.7,14.9
 2002/11/06,18:45,15.9,84,11.6,14.9
 2002/11/06,19:00,15.9,86,11.5,14.8
 2002/11/06,19:15,15.8,85,11.5,14.8
 2002/11/06,19:30,15.6,79,11.4,14.8
 2002/11/06,19:45,15.4,75.5,11.4,14.7
 2002/11/06,20:00,15.2,74,11.4,14.5
 2002/11/06,20:15,15.1,72.5,11.3,14.4
 2002/11/06,20:30,14.9,70,11.3,14.4
 2002/11/06,20:45,14.9,69.5,11.2,14.5
 2002/11/06,21:00,15,68,11.1,14.5
 2002/11/06,21:15,14.8,68.5,11.1,14.4
 2002/11/06,21:30,14.7,68,11.1,14.4
 2002/11/06,21:45,14.7,67,11.1,14.1
 2002/11/06,22:00,14.4,66,11.1,14.3
 2002/11/06,22:15,14.2,65.5,11.1,14.4
 2002/11/06,22:30,14.1,66,11,14.4
 2002/11/06,22:45,13.9,65.5,10.8,14.1
 2002/11/06,23:00,13.8,65,10.8,14
 2002/11/06,23:15,13.6,65,10.8,14
 2002/11/06,23:30,13.5,65,10.7,14
 2002/11/06,23:45,13.4,65,10.6,14
 2002/11/07, 0:00,13.2,65,10.5,13.9
 2002/11/07, 0:15,13.1,65,10.4,13.9
 2002/11/07, 0:30,13.1,65,10.3,13.9
 2002/11/07, 0:45,12.9,65,10.2,13.9
 2002/11/07, 1:00,12.8,65,10.2,13.8
 2002/11/07, 1:15,12.8,65,10.1,13.8
 2002/11/07, 1:30,12.6,65,10,13.8
 2002/11/07, 1:45,12.4,63.5,9.9,13.5
 2002/11/07, 2:00,12.4,64,9.7,14.1
 2002/11/07, 2:15,12.3,64,9.7,14.1
 2002/11/07, 2:30,12.2,64,9.7,14
 2002/11/07, 2:45,12.1,64.5,9.6,14
 2002/11/07, 3:00,12,65,9.4,14
 2002/11/07, 3:15,12,65,9.4,13.9
 2002/11/07, 3:30,11.9,65,9.4,13.9
 2002/11/07, 3:45,11.9,65,9.4,13.8
 2002/11/07, 4:00,11.8,65,9.4,13.8
 2002/11/07, 4:15,11.6,65,9.4,13.8
 2002/11/07, 4:30,11.6,65,9.3,13.7
 2002/11/07, 4:45,11.4,65,9.1,13.6
 2002/11/07, 5:00,11.4,65,9.1,13.6
 2002/11/07, 5:15,11.4,65,9,13.6
 2002/11/07, 5:30,11.2,65,8.9,13.5
 2002/11/07, 5:45,11.1,64.5,9,13.4
 2002/11/07, 6:00,11.1,65,8.8,13.4
 2002/11/07, 6:15,11,64.5,8.9,13.3
 2002/11/07, 6:30,10.9,64,8.8,13.2
 2002/11/07, 6:45,10.9,64,8.8,13.2
 2002/11/07, 7:00,10.8,64,8.6,13.2
 2002/11/07, 7:15,10.9,65,8.6,13.4
 2002/11/07, 7:30,11.1,65,8.6,13.9
 2002/11/07, 7:45,11.4,64.5,8.9,13.9
 2002/11/07, 8:00,11.9,63,9.1,13.9
 2002/11/07, 8:15,12.6,70,9.4,13.9
 2002/11/07, 8:30,13.1,72,9.9,13.8
 2002/11/07, 8:45,13.1,59.5,10.4,13.6
 2002/11/07, 9:00,13.3,57,10.7,13.7
 2002/11/07, 9:15,13.5,56,10.8,13.6
 2002/11/07, 9:30,14.2,56,10.7,13.6
 2002/11/07, 9:45,14.5,56.5,10.7,13.6
 2002/11/07,10:00,14.8,56,10.7,13.5
 2002/11/07,10:15,15.1,56,10.9,13.5
 2002/11/07,10:30,15.3,56,11.1,13.4
 2002/11/07,10:45,15.6,55,11.1,13.4
 2002/11/07,11:00,15.7,55,11.1,13.4
 2002/11/07,11:15,16,54.5,11.2,13.8
 2002/11/07,11:30,16.2,54,11.3,13.8
 2002/11/07,11:45,15.8,53.5,11.8,13.7
 2002/11/07,12:00,15.3,55,11.8,14.2
 2002/11/07,12:15,15.5,55.5,11.9,14.2
 2002/11/07,12:30,16.3,54,12,14.2
 2002/11/07,12:45,16.6,53.5,12.1,14.1
 2002/11/07,13:00,16.5,55,12.2,14.1
 2002/11/07,13:15,17.2,53.5,12.5,14.1
 2002/11/07,13:30,18,52,12.7,14.1
 2002/11/07,13:45,18.2,51,12.9,14.1
 2002/11/07,14:00,18.6,50,13,14.3
 2002/11/07,14:15,19,50.5,13.1,14.3
 2002/11/07,14:30,19.1,50,13.1,14.3
 2002/11/07,14:45,19.1,50,13.1,14.3
 2002/11/07,15:00,18.8,51,13.2,14.3
 2002/11/07,15:15,18.4,52.5,13.2,14.3
 2002/11/07,15:30,18.5,53,13.3,14.3
 2002/11/07,15:45,18.4,53,13.3,14.2
 2002/11/07,16:00,18.6,52,13.3,14.2
 2002/11/07,16:15,18.9,51.5,13.4,14.6
 2002/11/07,16:30,19.1,51,13.4,14.4
 2002/11/07,16:45,19.1,51,13.3,14.9
 2002/11/07,17:00,19.2,51,13.1,14.9
 2002/11/07,17:15,19.2,52,13.1,14.9
 2002/11/07,17:30,19.4,52,13,14.9
 2002/11/07,17:45,18.9,52.5,12.9,14.8
 2002/11/07,18:00,18.5,54,12.9,14.8
 2002/11/07,18:15,18.6,53.5,12.8,14.8
 2002/11/07,18:30,18.3,54,12.7,14.8